Location: Skalnate Pleso
(49.1889°N, 20.2450°E)
Time: 00:25:37
(UTC+01:00)

Lacrosse 5 - Pass Details

Date: 19 November 2019
Orbit: 715 x 724 km, 57.0° (Epoch: 30 November)

Event Time Altitude Azimuth Distance (km) Brightness Sun altitude
Exits shadow 05:39:53 16° 298° (WNW) 1,813 3.3 -12.1°
Maximum altitude 05:43:18 34° 355° (N) 1,172 2.8 -11.5°
Drops below altitude 10° 05:47:56 10° 61° (ENE) 2,206 5.0 -10.8°
Sets 05:50:31 0° 71° (ENE) 3,125 6.1 -10.4°
